Location: Passau
(48.5721°N, 13.4363°E)
Time: 11:33:31
(UTC+02:00)

ISS - Visible Passes

Search period start: 25 September 2017 00:00
Search period end: 05 October 2017 00:00
Orbit: 401 x 407 km, 51.6° (Epoch: 25 September)

Date Brightness Start Highest point End Pass type
(mag) Time Alt. Az. Time Alt. Az. Time Alt. Az.
25 Sep -1.0 21:19:18 10° SW 21:19:29 11° SW 21:19:29 11° SW visible
26 Sep -2.8 20:27:18 10° SSW 20:29:50 29° SSE 20:29:50 29° SSE visible
27 Sep -2.1 19:35:40 10° S 19:38:01 19° SE 19:39:59 12° E visible
27 Sep -2.2 21:10:51 10° WSW 21:12:39 30° WSW 21:12:39 30° WSW visible
28 Sep -3.7 20:18:33 10° SW 20:21:46 56° SSE 20:22:38 40° E visible
28 Sep -0.5 21:55:05 10° W 21:55:17 11° W 21:55:17 11° W visible
29 Sep -3.0 19:26:27 10° SSW 19:29:28 35° SE 19:32:28 10° E visible
29 Sep -2.8 21:02:34 10° W 21:05:07 47° WNW 21:05:07 47° WNW visible
30 Sep -3.9 20:10:06 10° WSW 20:13:22 85° NNW 20:14:51 30° ENE visible
30 Sep -0.6 21:46:53 10° WNW 21:47:31 15° WNW 21:47:31 15° WNW visible
01 Oct -3.7 19:17:43 10° SW 19:20:58 66° SSE 19:24:14 10° ENE visible
01 Oct -2.9 20:54:20 10° W 20:57:10 46° NNW 20:57:10 46° NNW visible
02 Oct -3.4 20:01:47 10° W 20:05:01 58° NNW 20:06:45 24° ENE visible
02 Oct -0.8 21:38:34 10° WNW 21:39:24 16° WNW 21:39:24 16° WNW visible
03 Oct -3.7 19:09:15 10° WSW 19:12:31 76° NNW 19:15:49 10° ENE visible
03 Oct -2.9 20:46:03 10° WNW 20:48:57 45° NNW 20:48:57 45° NNW visible
04 Oct -3.2 19:53:28 10° W 19:56:41 48° N 19:58:28 22° ENE visible
04 Oct -0.9 21:30:09 10° WNW 21:31:06 18° WNW 21:31:06 18° WNW visible
